Regional Weather Roundup
Issued by NWS

Home | Current Version | Previous Version | Text Only | Print | Product List | Glossary On
Versions: 1 2 3 4 5 6 7 8 9 10 11 12 13 14 15 16 17 18 19 20 21 22 23 24 25 26 27 28 29 30 31 32 33 34 35 36 37 38 39 40 41 42 43 44 45 46 47 48 49 50
000
ASUS43 KLOT 231310
RWRIL

ILLINOIS REGIONAL WEATHER ROUNDUP
NATIONAL WEATHER SERVICE CHICAGO/ROMEOVILLE IL
800 AM CDT WED APR 23 2014

NOTE: "FAIR" INDICATES FEW OR NO CLOUDS BELOW 12,000 FEET WITH NO
SIGNIFICANT WEATHER AND/OR OBSTRUCTIONS TO VISIBILITY.

* THESE STATIONS ARE NOT UNDER NWS QUALITY CONTROL. THEY ALSO MAY NOT
  REPORT WEATHER SUCH AS PRECIPITATION OR FOG.

ILZ001-002-007-009-015-016-024-231400-
NORTHWEST ILLINOIS

CITY           SKY/WX    TMP DP  RH WIND       PRES   REMARKS
MOLINE         MOSUNNY   41  31  67 E9        30.16S
STERLING*      SUNNY     39  30  70 E6        30.18S WCI  35
SAVANNA*       MOSUNNY   40  32  71 SE5       30.19R
$$

ILZ003-004-008-010-011-017-018-231400-
NORTH CENTRAL ILLINOIS

CITY           SKY/WX    TMP DP  RH WIND       PRES   REMARKS
ROCKFORD       PTSUNNY   39  29  67 NE7       30.20R WCI  34
FREEPORT*      SUNNY     35  31  85 CALM      30.19S
ROCHELLE*      SUNNY     38  31  77 E7        30.17R WCI  32
DE KALB*       SUNNY     35  30  81 NE8       30.17R WCI  29
PERU*          SUNNY     40  32  74 CALM      30.18S
$$

ILZ005-006-012>014-019>023-231400-
NORTHEAST ILLINOIS

CITY           SKY/WX    TMP DP  RH WIND       PRES   REMARKS
CHICAGO-OHARE  MOSUNNY   40  26  57 NE14      30.17R
CHICAGO-MIDWAY MOSUNNY   40  27  59 NE15      30.17R
AURORA         SUNNY     38  30  73 NE8       30.17S WCI  32
LANSING*       SUNNY     39  27  62 NE12G17   30.17R WCI  32
JOLIET*        SUNNY     38  29  69 NE9       30.18S WCI  32
WAUKEGAN       SUNNY     38  28  67 VRB6      30.17R WCI  33
DUPAGE AIRPORT SUNNY     38  30  73 NE15      30.16R WCI  29
KANKAKEE*      SUNNY     38  31  74 N10       30.17S WCI  31
WHEELING       SUNNY     39  27  62 NE13G18   30.19R WCI  31
MORRIS*        SUNNY     39  29  67 E6        30.17R WCI  35
ROMEOVILLE*    SUNNY     39  28  65 NE10      30.17R WCI  32
NORTHERLY ISL    N/A     38  29  70 N15         N/A  WCI  29
$$

LMZ740>746-231400-
SOUTHERN LAKE MICHIGAN

STATION/POSITION SKY/WX   TEMP    WIND        PRES    VSBY  WAVE
                          AIR SEA DIR/SP/G                  HT/PER
                          (F)     (DEG/KT/KT) (MB)    (MI)  (FT/S)
WAUKEGAN HARBOR            38      20/ 16/ 18 1023.0R
HARRISON CRIB              36      20/ 15/ 19   N/A
BURNHAM HARBOR             38      20/ 14/ 16   N/A
CALUMET HARBOR             38      10/ 13/ 17 1022.7R
MICHIGAN CITY              36      10/ 18/ 22   N/A
$$

ILZ025>027-034>036-040-047-049-050-058-095>099-231400-
WEST-CENTRAL ILLINOIS

CITY           SKY/WX    TMP DP  RH WIND       PRES   REMARKS
QUINCY         PTSUNNY   45  32  60 SE15      30.14R
GALESBURG*     PTSUNNY   40  32  73 E7        30.16S
MACOMB*        CLOUDY    43  31  63 SE10      30.18R
JACKSONVILLE*  SUNNY     44  32  63 E12       30.16S
PITTSFIELD*    SUNNY     46  31  56 E13       30.16R
$$

ILZ028>032-037-038-041>044-048-051>054-059>061-231400-
CENTRAL ILLINOIS

CITY           SKY/WX    TMP DP  RH WIND       PRES   REMARKS
PONTIAC        SUNNY     41  32  70 NE9       30.17R
BLOOMINGTON    SUNNY     38  29  70 NE13      30.18R WCI  30
DECATUR        SUNNY     43  30  60 E12       30.16R
PEORIA         SUNNY     43  29  57 E8        30.17R
LACON*         MOSUNNY   40  32  71 E6        30.18R
LINCOLN*       SUNNY     43  31  61 E10       30.17S
SPRINGFIELD    SUNNY     44  29  55 E9        30.18R
TAYLORVILLE    SUNNY     41  30  65 E8        30.15R
$$

ILZ033-039-045-046-055>057-062-063-231400-
EAST-CENTRAL ILLINOIS

CITY           SKY/WX    TMP DP  RH WIND       PRES   REMARKS
CHAMPAIGN      SUNNY     41  29  62 NE16      30.13F
RANTOUL*       SUNNY     41  29  62 NE14      30.16R
MATTOON        SUNNY     42  29  59 NE13      30.14R
PARIS*         SUNNY     41  31  67 NE9       30.15S
$$

ILZ079-100>102-231400-
SOUTHWEST ILLINOIS

CITY           SKY/WX    TMP DP  RH WIND       PRES   REMARKS
BELLEVILLE     SUNNY     48  41  76 E6        30.13R
CAHOKIA*       SUNNY     49  39  68 E10       30.12R
SPARTA*        SUNNY     46  37  71 E7        30.13R
$$

ILZ064>066-069>071-074>076-080>082-084>086-088>090-092>094-231400-
SOUTH-CENTRAL ILLINOIS

CITY           SKY/WX    TMP DP  RH WIND       PRES   REMARKS
CARBONDALE     SUNNY     50  39  66 E8        30.11R
CAIRO*         SUNNY     55  42  61 NE8       30.09R
MARION         SUNNY     52  37  58 NE7       30.12R
MT. VERNON     SUNNY     48  30  49 NE6       30.14R
CENTRALIA*       N/A     47  33  58 CALM      30.13R
SALEM*         SUNNY     47  37  67 E7        30.14R
METROPOLIS*    SUNNY     53  37  53 E6        30.09R
$$

ILZ067-068-072-073-078-083-087-091-231400-
SOUTHEAST ILLINOIS

CITY           SKY/WX    TMP DP  RH WIND       PRES   REMARKS
FAIRFIELD*     SUNNY     48  36  61 E9        30.13R
HARRISBURG*    SUNNY     50  37  60 E10       30.14R
ROBINSON*      SUNNY     46  33  61 NE9       30.16R
CARMI*         SUNNY     50  38  62 NE10      30.12S
$$

ABBREVIATIONS USED IN REMARKS
   TC - TEMPERATURE IN CELSIUS
  WCI - WIND CHILL INDEX
   HX - HEAT INDEX
  VSB - VISIBILITY
$$




USA.gov is the U.S. government's official web portal to all federal, state and local government web resources and services.